RH
46 46 47 47 47 48 48 48 48 47 46 46 47 48 49 50 50 49 48 47 45 43 41 39 38 35 33 31 29 28 27 26 25 24 23 22 22 21 21 21 21 21
45 45 45 45 45 45 44 44 43 42 41 39 38 38 37 37 37 36 35 33 32 30 28 26 24 22 21 20 19 17 17 16 16 15 15 14 14 13 14 13 13 13
41 40 40 39 38 37 36 34 33 31 29 27 25 24 23 23 22 21 20 20 19 18 17 16 15 15 14 13 13 13 13 13 12 12 12 12 12 11 11 11 10 10
36 33 31 29 26 24 23 21 20 18 17 16 15 15 14 14 14 14 13 13 13 13 13 13 13 13 13 12 13 12 12 13 12 12 12 11 12 12 12 11 11 10
27 24 21 19 17 16 15 14 14 13 13 13 13 12 12 12 12 12 12 12 12 12 12 13 12 12 12 12 12 12 11 11 11 11 11 11 11 11 10 10 10 10
18 17 16 15 15 15 14 14 14 13 13 13 12 12 12 11 11 11 11 11 11 11 11 11 11 11 11 10 10 10 10 9 10 9 9 9 9 9 9 9 9 9
15 15 15 15 14 14 14 14 13 13 13 13 12 12 12 11 11 11 10 10 10 10 10 9 9 9 9 9 8 8 8 8 8 8 8 8 8 8 8 8 8 8
14 14 14 14 13 13 13 13 13 12 12 12 11 11 11 10 10 9 9 9 9 9 8 8 9 8 8 8 8 8 8 8 8 8 8 8 8 8 8 8 8 8
13 13 13 13 12 12 12 12 11 11 10 10 10 9 9 9 9 8 8 8 8 8 8 8 8 8 8 8 8 7 7 7 7 7 6 6 6 6 6 7 7 6
13 13 12 12 11 11 11 10 10 10 9 9 9 8 8 8 8 8 8 8 8 8 8 7 7 7 7 7 6 6 6 6 6 6 6 6 6 6 6 6 6 6
12 12 11 11 10 10 9 9 9 8 8 8 8 8 8 8 8 7 7 7 7 6 6 6 6 6 6 6 6 6 5 6 6 5 5 5 5 5 5 5 5 5
11 11 10 10 10 9 9 9 9 9 9 8 8 8 8 7 7 6 6 6 6 6 6 6 6 6 6 6 5 6 5 5 5 5 5 5 5 4 5 5 5 5
11 10 10 10 10 10 10 9 9 9 8 8 7 7 7 7 7 6 6 6 6 6 6 6 6 5 5 6 5 5 5 4 5 5 4 5 5 4 4 4 4 4
10 10 10 10 10 10 9 9 8 8 8 7 7 7 7 6 7 6 6 6 6 6 6 5 6 5 5 5 5 5 5 5 5 5 5 4 4 4 4 4 4 4
10 9 9 9 9 9 8 8 8 8 7 7 7 7 7 6 6 6 6 6 6 6 6 5 5 5 5 5 5 5 5 4 4 4 4 4 3 4 4 3 4 3
9 9 9 9 8 8 8 7 7 7 7 7 7 6 6 6 6 6 6 6 5 5 5 5 5 5 5 5 4 4 4 3 3 3 3 3 3 3 3 3 3 3
8 8 8 8 7 7 7 7 7 7 6 6 6 6 6 5 5 5 5 5 5 5 5 5 5 4 4 3 3 3 3 2 3 3 3 3 3 3 3 3 3 2
7 7 7 7 6 6 6 6 6 6 6 5 5 5 5 5 5 5 6 6 5 5 5 4 4 3 3 3 3 3 3 2 2 3 3 3 3 3 3 3 2 2
6 6 6 6 6 6 5 5 5 5 6 5 6 6 6 6 6 6 6 6 5 4 4 3 3 3 3 3 3 3 3 3 3 3 3 3 3 3 2 2 2 2
6 6 6 6 6 6 6 6 6 6 6 6 6 6 6 6 6 5 5 4 4 3 3 3 3 3 3 3 3 3 3 3 3 3 3 3 3 3 2 2 2 2
7 7 7 7 7 6 6 6 6 6 5 5 5 5 5 4 4 4 4 3 3 3 3 3 4 3 3 3 3 3 3 3 3 3 3 3 3 3 2 2 2 2
6 6 6 6 5 5 5 5 4 4 4 4 4 4 4 4 4 4 3 3 3 3 3 4 4 3 3 3 3 3 3 3 3 3 3 3 3 3 2 2 2 2
5 4 4 4 4 4 4 4 4 4 4 4 4 4 4 4 4 3 3 3 3 3 4 4 3 3 3 3 3 3 3 3 3 3 3 3 3 3 3 2 2 2
4 4 4 4 4 4 4 4 4 4 4 4 4 4 4 4 4 3 3 3 4 4 3 3 3 3 3 3 3 3 3 3 3 3 3 3 3 3 2 3 2 2
4 4 4 4 4 4 4 4 4 4 4 4 4 4 4 4 4 3 4 4 4 3 3 3 3 3 3 3 3 2 3 3 3 3 3 2 2 3 2 2 3 2
4 4 4 4 4 4 4 4 4 4 4 4 4 4 4 4 3 3 3 4 3 3 3 3 3 3 3 3 3 3 3 3 3 2 2 2 2 2 2 2 2 3
Wind_Speed
112 112 112 112 113 113 114 114 114 114 115 115 116 117 118 119 120 121 121 122 122 123 123 123 124 124 124 125 125 125 125 125 126 127 128 129 129 130 131 131 133 134
114 114 114 115 115 116 116 117 117 117 117 117 117 117 118 119 119 120 121 121 122 122 122 122 123 123 123 123 122 122 122 122 123 123 125 125 126 127 128 129 131 132
116 116 116 116 116 116 117 117 117 116 116 116 116 115 116 116 117 117 118 118 118 118 119 119 119 120 120 120 119 119 119 119 119 120 120 121 122 123 124 125 127 128
117 117 116 116 115 115 115 114 114 114 114 113 113 113 113 113 113 113 114 114 115 115 115 116 116 116 117 117 116 116 115 115 116 117 117 118 118 120 121 122 123 124
118 117 116 115 115 114 114 114 113 113 113 112 112 111 110 110 110 110 110 110 110 110 111 112 112 113 113 114 114 114 113 113 113 114 115 115 116 117 118 119 120 121
117 117 117 116 115 115 114 113 113 112 111 110 109 109 108 107 107 107 107 107 107 108 108 109 110 111 111 112 112 112 112 112 111 112 113 113 113 114 115 116 117 118
115 115 115 114 114 113 112 111 111 110 109 108 108 108 107 107 107 107 106 106 106 107 107 108 108 109 109 110 110 110 110 110 110 110 110 110 111 111 112 113 114 114
113 112 112 112 111 110 110 109 109 108 107 107 107 107 106 106 106 106 106 105 105 105 106 106 106 106 107 107 107 107 107 107 107 108 107 107 107 107 107 109 110 111
111 110 110 109 109 109 109 108 108 108 107 106 106 106 106 105 105 104 104 104 104 104 104 104 104 104 104 104 104 104 104 104 104 104 104 103 103 103 103 105 106 107
111 110 110 109 108 108 108 108 107 107 107 106 106 105 105 105 104 103 102 102 102 102 101 101 101 101 101 101 101 101 100 100 100 101 100 100 100 100 100 102 104 105
111 110 110 110 109 108 108 107 107 106 105 105 105 104 104 103 103 102 101 100 99 99 99 98 98 98 98 98 98 98 98 97 97 98 98 98 98 98 99 100 101 102
111 111 110 110 110 109 109 108 107 107 106 105 104 104 103 102 102 101 100 99 98 98 98 98 97 97 97 97 97 97 97 96 96 96 96 96 96 97 97 98 99 100
111 110 110 110 110 109 109 108 107 106 105 105 104 103 103 102 102 101 101 100 99 98 98 98 97 97 96 96 96 96 95 95 94 94 94 95 95 96 96 97 98 98
108 108 108 108 108 107 107 106 106 105 105 104 104 103 102 102 101 101 101 101 100 99 98 97 97 96 96 95 95 94 94 94 94 94 94 94 94 95 95 96 96 96
106 106 106 106 106 106 106 105 105 105 105 104 104 103 103 102 101 101 100 100 99 98 97 96 95 94 94 94 93 93 93 93 93 93 93 92 92 92 93 93 93 93
106 106 106 106 106 106 106 105 105 105 104 104 103 102 102 101 100 99 98 97 96 95 94 94 93 92 92 92 92 92 92 92 92 91 91 90 89 88 89 89 90 91
105 106 106 106 105 105 104 104 103 103 102 101 100 99 98 98 97 96 96 95 94 92 91 91 91 91 91 91 91 91 91 90 88 87 87 86 85 85 85 86 88 89
103 103 103 103 102 101 101 100 100 99 98 97 97 96 96 95 95 95 94 94 93 92 91 90 90 91 90 90 90 90 89 87 85 82 81 81 81 81 82 83 85 87
100 100 100 99 99 98 98 97 97 96 96 95 94 94 94 94 94 94 93 93 92 91 89 88 88 89 88 88 88 87 85 84 82 79 76 75 77 78 79 81 82 83
97 97 97 97 96 96 95 95 94 94 93 92 91 91 91 91 91 92 91 91 90 88 86 85 85 85 85 85 85 83 82 81 79 76 73 73 74 76 77 78 79 80
95 94 94 94 93 93 92 92 91 91 90 89 88 88 88 88 88 88 88 87 86 84 82 80 81 82 82 82 81 80 79 78 76 73 72 72 73 74 75 76 76 77
92 91 91 90 90 89 89 88 88 87 87 85 84 84 85 85 85 84 84 82 81 80 78 77 78 79 79 78 77 76 75 74 72 71 71 71 71 72 72 73 73 74
89 88 88 87 87 86 86 85 85 84 83 82 81 80 81 82 82 81 80 78 76 75 75 75 75 76 76 74 74 73 71 70 69 69 70 70 69 69 69 69 69 69
86 86 85 84 83 83 82 81 81 80 79 79 78 77 78 80 80 78 76 76 74 73 73 72 72 73 73 72 70 69 67 67 67 68 68 67 66 66 66 66 66 65
84 83 82 81 80 79 78 78 77 76 76 76 76 76 77 78 77 73 71 72 73 72 70 68 68 70 70 69 67 66 65 65 66 66 65 64 64 64 63 63 63 62
81 80 79 78 77 76 75 75 75 73 73 73 73 74 75 75 71 67 66 69 71 69 66 65 65 66 67 66 65 63 63 62 63 63 63 62 61 61 61 61 60 60
Wind_Direction
282 282 281 281 281 280 280 279 278 278 277 277 276 276 276 276 275 275 275 274 274 273 273 272 271 270 270 269 268 268 267 266 266 266 265 265 264 264 263 262 262 261
282 282 281 281 280 280 280 279 279 278 277 277 276 276 275 275 275 275 274 274 274 274 273 273 272 271 271 270 269 268 268 267 266 266 265 265 264 264 263 262 262 261
282 282 281 281 281 280 280 279 279 278 278 277 277 276 276 275 275 275 275 274 274 274 273 273 272 272 271 270 269 269 268 267 266 266 265 264 264 264 263 263 262 262
283 283 282 282 282 281 280 280 280 279 279 278 277 277 276 275 275 274 274 274 273 273 272 272 272 271 271 270 269 268 268 267 266 266 265 264 264 264 263 263 263 262
285 285 284 284 283 283 282 281 281 280 280 279 278 277 276 275 275 274 273 273 273 272 272 272 272 271 271 270 270 269 268 267 267 266 265 265 264 264 263 263 263 262
285 285 284 284 283 283 282 282 281 281 280 280 279 278 278 277 276 275 275 274 274 274 273 273 272 272 271 270 270 269 268 267 267 266 265 265 264 264 263 263 262 262
285 284 284 284 283 283 283 282 282 282 281 281 281 280 280 279 278 278 277 276 275 275 274 273 273 272 271 271 270 269 269 268 267 266 265 265 264 264 264 263 263 262
285 285 285 285 285 284 284 284 283 283 282 282 281 281 280 279 279 278 277 276 276 275 274 274 273 273 272 271 271 270 270 269 268 267 266 265 265 264 264 264 263 262
287 287 286 286 286 286 285 285 285 284 283 283 282 282 281 280 279 279 278 277 277 276 275 275 274 273 273 272 271 271 270 269 269 268 267 266 265 264 264 263 262 261
289 288 288 288 287 287 286 285 285 284 284 284 283 282 282 281 280 280 279 278 278 277 276 276 275 274 274 273 273 272 271 270 269 269 267 266 265 264 263 262 262 261
290 290 289 289 288 288 287 287 286 286 285 285 284 284 283 282 282 281 281 280 279 279 278 277 276 276 275 274 274 273 272 270 270 269 268 267 266 264 263 262 261 261
290 290 290 289 289 289 288 288 288 287 287 286 286 285 285 284 284 283 283 282 281 281 280 279 278 277 277 276 275 274 273 271 270 269 268 267 266 265 263 262 261 260
290 290 289 289 289 288 288 288 288 287 287 286 286 286 285 285 285 284 284 283 283 282 281 280 280 279 278 277 276 275 274 273 271 270 268 267 266 264 263 261 260 259
289 289 289 289 288 288 288 288 287 287 287 287 286 286 286 285 285 285 284 284 283 283 282 281 281 280 279 278 277 276 274 272 271 269 268 266 265 264 263 262 261 259
290 290 289 289 289 288 288 288 288 288 287 287 287 286 286 286 285 285 284 284 283 282 282 281 280 279 278 277 276 274 273 271 270 268 267 266 265 265 264 263 262 260
291 290 290 290 289 289 289 288 288 288 287 287 287 286 286 285 285 284 283 283 282 281 281 280 279 278 277 275 274 273 272 270 270 269 269 268 267 266 265 264 263 261
290 290 290 289 289 289 288 288 288 287 287 287 286 286 286 285 285 284 284 283 282 281 280 280 279 278 277 276 275 273 272 271 270 270 269 269 268 266 265 264 262 260
290 289 289 289 289 288 288 288 288 287 287 287 287 287 286 286 285 284 284 283 282 281 280 280 279 279 278 277 276 275 274 272 271 269 269 269 268 266 264 262 261 260
290 290 289 289 289 289 289 288 288 288 287 287 287 286 286 285 284 284 283 282 281 281 280 280 279 279 278 277 276 275 274 273 272 271 270 269 267 265 263 261 260 259
291 290 290 290 289 289 289 288 288 287 286 286 286 285 284 284 283 283 282 281 281 280 280 280 279 278 277 276 276 275 275 274 273 272 271 268 266 264 262 261 260 259
291 290 290 289 289 288 288 287 287 286 286 286 285 285 284 283 283 282 281 281 281 281 281 280 279 278 276 276 275 275 274 273 273 272 270 268 265 263 262 260 259 258
291 290 290 289 289 288 288 288 288 287 287 287 286 286 285 284 283 282 281 281 281 282 282 280 279 277 276 276 275 275 274 274 273 272 269 266 264 263 262 261 260 259
292 291 291 291 290 290 290 289 289 289 289 288 288 287 286 285 283 283 283 283 283 283 282 280 279 278 277 277 276 275 275 274 273 271 269 267 266 264 263 262 261 260
293 293 293 292 292 292 292 291 291 290 290 289 288 287 286 285 284 285 286 286 285 283 281 281 280 280 279 278 277 276 275 274 272 270 269 268 267 266 264 263 262 261
295 295 294 294 293 293 292 292 291 290 290 289 289 287 286 285 285 286 287 287 284 282 281 281 281 280 279 278 277 276 274 273 272 271 269 268 267 266 265 264 263 261
296 296 295 294 294 293 293 292 291 290 290 289 289 288 286 285 286 288 287 285 283 282 282 282 280 279 278 277 276 275 274 272 271 270 269 268 267 265 264 263 262 261